Dewpoint
41 40 40 40 40 40 39 38 37 35 35 33 27 26 29 30 31 27 29 34 33 33 33 34 34 34 35 36 36 36 36 36 36 37 37 37 38 39
40 38 38 39 39 39 39 38 38 36 34 29 26 25 25 25 31 26 29 31 31 31 33 33 33 34 34 35 34 34 34 35 35 36 37 37 38 38
37 37 38 37 34 33 33 32 32 33 33 29 28 25 23 23 24 25 26 25 25 31 32 32 33 33 34 33 33 33 34 34 34 35 36 37 36 36
35 35 31 26 27 27 28 28 28 28 28 24 25 24 23 23 23 24 24 24 25 30 32 31 32 33 32 31 32 32 32 31 33 34 34 35 35 35
29 27 26 25 26 27 27 28 29 26 27 26 25 26 25 25 25 25 24 25 26 30 31 32 34 31 31 31 31 31 30 31 32 33 33 33 33 34
26 26 26 26 26 26 26 27 26 26 25 26 25 25 26 27 26 25 26 27 28 28 29 31 30 30 31 31 30 30 30 31 32 32 32 32 32 32
29 28 30 32 32 29 28 28 27 27 27 27 27 27 26 25 25 27 27 28 28 29 28 27 26 27 28 29 28 30 31 32 32 32 32 32 32 32
28 31 33 33 32 32 32 31 29 27 27 27 27 26 26 26 27 27 28 27 26 29 27 25 26 26 26 26 29 30 31 31 31 31 32 32 32 32
30 30 27 29 32 31 32 32 31 32 30 27 26 26 26 26 27 27 28 28 27 28 26 24 25 24 25 24 29 30 30 30 30 30 30 31 31 31
29 29 29 31 31 30 29 28 28 28 29 28 27 27 27 28 28 29 28 27 26 26 26 23 24 24 24 25 29 28 29 28 29 30 30 30 30 30
28 28 29 30 31 31 29 28 27 27 30 32 31 30 30 29 30 26 25 25 24 24 26 25 24 24 24 24 23 27 28 28 29 29 30 30 29 29
28 29 32 30 31 31 28 28 26 25 27 27 25 26 27 28 31 28 27 25 24 23 25 24 24 25 21 22 23 23 25 28 29 29 29 29 29 26
28 28 28 30 30 31 31 28 27 27 27 24 25 25 26 25 24 24 25 25 23 23 24 25 25 22 24 22 22 23 23 24 23 25 28 28 29 28
26 28 29 30 29 29 29 28 29 28 24 25 24 24 23 23 23 24 25 25 26 25 24 25 17 20 22 20 20 22 22 23 24 24 24 27 28 29
26 28 30 29 29 28 28 29 27 25 24 24 23 23 23 22 24 24 25 25 24 25 24 25 23 23 21 21 21 22 22 22 23 24 24 24 24 24
29 28 28 29 28 28 25 24 23 23 23 23 23 24 24 23 23 24 19 21 17 21 24 25 24 23 21 22 22 22 22 21 22 23 24 24 24 24
27 26 24 23 21 22 21 22 22 23 24 24 23 23 23 24 23 22 17 14 19 20 19 21 23 24 23 22 21 21 21 21 22 23 23 22 22 23
26 24 22 21 21 20 21 22 23 23 24 24 23 22 21 19 19 20 16 11 16 19 20 20 20 20 20 20 24 21 21 21 22 23 23 21 20 22
24 21 21 22 21 21 22 22 22 24 23 21 21 20 20 20 20 15 14 14 18 19 19 19 11 18 16 14 18 23 21 21 22 22 22 19 21 23
22 22 22 21 21 22 23 21 21 22 21 21 21 22 21 20 13 13 14 16 18 18 19 20 9 12 16 18 20 21 24 22 22 22 21 22 24 26
22 21 21 23 23 23 22 22 21 19 20 15 15 14 15 15 17 16 16 21 21 19 19 19 20 25 21 17 16 17 20 23 24 24 25 23 20 19
21 22 23 24 23 22 20 19 16 15 13 13 17 19 15 18 18 17 17 17 17 19 20 20 20 17 4 15 17 18 19 21 22 24 25 25 23 19
22 23 24 25 25 22 18 15 13 12 19 15 20 21 21 20 19 20 19 17 17 19 19 18 17 16 12 14 20 19 17 17 19 19 21 24 25 25
Lifted_Index
10 10 10 10 9 10 10 10 9 9 10 10 11 12 12 13 15 17 19 20 20 20 19 19 18 18 18 18 18 18 18 18 18 18 18 17 17 17
10 10 10 10 9 9 10 10 10 10 10 11 11 12 13 14 16 18 20 20 20 20 19 19 18 18 18 18 18 18 18 18 18 18 18 18 18 17
10 10 9 9 9 9 10 10 11 11 12 12 13 13 14 16 18 20 20 20 20 20 19 19 19 19 19 19 19 19 19 19 19 19 19 18 18 18
10 10 9 9 9 10 10 11 12 13 14 14 15 16 17 19 19 20 20 20 20 20 19 19 19 19 19 19 19 19 20 20 20 19 19 19 19 19
11 11 10 10 10 11 12 12 13 14 15 15 16 18 19 19 19 19 19 19 20 20 20 20 20 20 20 20 20 20 20 20 20 19 19 19 19 19
12 12 12 12 12 13 13 14 14 15 16 16 16 17 18 18 18 18 18 19 19 20 20 20 20 20 20 20 20 20 20 20 19 19 19 19 19 19
12 12 13 14 14 15 15 16 17 17 17 16 16 16 17 17 17 17 18 18 18 19 19 19 20 20 20 20 20 20 19 19 19 18 18 18 17 17
11 11 13 14 15 17 18 18 18 18 17 17 16 16 16 17 17 17 18 17 17 18 19 18 19 19 19 19 19 19 18 18 17 17 16 15 14 14
10 11 13 15 17 18 19 19 19 18 18 17 16 16 17 17 18 18 18 18 18 18 19 18 18 18 18 18 18 17 16 16 15 14 13 13 12 12
12 13 15 17 18 19 18 18 19 18 18 18 17 17 18 18 18 18 18 18 18 18 18 18 18 18 18 17 16 15 14 14 13 12 12 11 11 11
15 16 17 18 19 19 18 18 18 18 18 18 18 18 18 18 18 18 18 17 17 17 18 18 17 17 16 15 14 13 13 12 12 11 11 10 10 10
17 17 17 18 19 18 18 18 17 17 17 17 17 18 18 18 18 18 18 17 16 17 18 18 17 16 15 13 13 12 12 11 11 11 10 10 9 9
16 17 18 18 18 18 18 17 17 17 17 16 17 17 17 17 18 18 18 18 17 18 18 18 17 15 13 12 12 11 11 11 10 10 10 9 9 9
16 16 17 18 18 18 17 17 17 16 16 16 16 16 16 17 17 18 19 19 19 18 18 18 16 14 13 12 11 11 11 10 10 9 9 9 9 9
16 17 17 17 17 17 17 17 16 16 16 16 16 16 16 17 17 18 19 19 18 18 17 16 15 14 13 12 11 10 10 9 9 9 9 9 9 8
17 17 17 17 17 17 17 16 16 16 16 16 16 16 17 17 18 18 18 18 17 16 15 15 14 14 13 11 10 9 9 9 9 9 9 8 8 8
17 17 16 16 16 16 16 16 17 17 16 16 16 16 17 17 18 18 18 17 16 14 14 14 14 13 12 10 9 9 9 9 9 9 8 8 7 7
16 16 16 16 16 15 16 16 16 17 17 16 17 17 17 18 18 18 18 17 15 14 13 13 13 12 10 9 9 9 9 9 9 8 8 8 7 7
16 16 16 16 16 16 16 16 16 17 17 17 17 17 18 18 18 18 17 16 14 13 13 12 12 11 9 9 8 9 9 9 9 9 8 8 7 7
16 16 16 16 16 16 16 17 17 17 17 17 17 18 18 18 18 17 16 15 14 13 12 11 11 11 10 9 9 8 9 9 9 9 8 8 7 7
16 16 16 16 16 17 17 17 16 17 17 17 18 18 18 18 17 16 15 14 13 12 11 11 11 11 11 10 9 8 8 9 9 9 9 8 7 7
16 17 17 17 17 17 17 17 17 17 17 18 18 19 18 18 16 15 15 14 13 12 11 11 11 11 10 10 9 8 8 8 8 8 8 8 8 7
17 17 17 17 17 17 17 17 17 17 18 18 19 19 18 17 16 15 14 13 12 12 11 11 10 10 10 10 9 9 8 8 8 7 8 8 8 8